Home   Weather   Aarhus   Past weeks

Flag for Denmark Past Weather in Aarhus, Denmark — Yesterday and Last 2 Weeks

Now
50 °F

Overcast.


Feels Like: 45 °F
Forecast: 42 / 48 °F
Wind: 15 mph from West

Location: Tirstrup

Current Time: Dec 10, 2016 at 9:51:54 am

Latest Report: Dec 10, 2016 at 9:20 am


Visibility: N/A

Pressure: 29.89 "Hg

Humidity: 94%

Dew Point: 48 °F

Location of AarhusLocation

Past Weather in Aarhus — Graph

°F

Aarhus Temperature Yesterday

Maximum temperature yesterday: 50 °F (at 9:50 pm)
Minimum temperature yesterday: 46 °F (at 12:20 am)
Average temperature yesterday: 48 °F

High & Low Weather Summary for the Past Weeks

 TemperatureHumidityPressure
High54 °F (Dec 8, 4:50 am)100% (Nov 25, 8:50 am)30.51 "Hg (Nov 25, 8:50 am)
Low23 °F (Dec 3, 3:50 am)39% (Nov 27, 5:50 pm)29.68 "Hg (Dec 1, 3:50 pm)
Average41 °F82%30.13 "Hg
* Reported Nov 25 8:20 am — Dec 10 8:20 am, Aarhus, Weather by CustomWeather, © 2016

Note: Actual official high and low records may vary slightly from our data, if they occured in-between our weather recording intervals... More about our weather records

Advertising

Aarhus Weather History for the Previous 24 Hours

Scroll right to see more
 ConditionsComfort  
Time TempWeatherWind HumidityBarometerVisibility
8:20 am
Sat, Dec 10
52 °FLow clouds.15 mph88%29.89 "HgN/A
7:50 am52 °FPassing clouds.12 mph88%29.86 "HgN/A
7:20 am52 °FPassing clouds.9 mph88%29.86 "HgN/A
6:50 am52 °FPassing clouds.10 mph94%29.86 "HgN/A
6:20 am52 °FPassing clouds.10 mph94%29.86 "HgN/A
5:50 am52 °FPassing clouds.12 mph94%29.86 "HgN/A
5:20 am52 °FPassing clouds.13 mph94%29.86 "HgN/A
4:50 am52 °FPassing clouds.13 mph94%29.86 "HgN/A
4:20 am52 °FPassing clouds.13 mph94%29.89 "HgN/A
3:50 am52 °FLow clouds.10 mph94%29.89 "HgN/A
3:20 am52 °FPassing clouds.12 mph94%29.89 "HgN/A
2:50 am52 °FLow clouds.13 mph94%29.89 "HgN/A
2:20 am52 °FLow clouds.12 mph94%29.89 "HgN/A
1:50 am52 °FSprinkles. Low clouds.12 mph94%29.89 "HgN/A
1:20 am50 °FPassing clouds.10 mph100%29.92 "HgN/A
12:50 am50 °FLight rain. Low clouds.9 mph100%29.92 "HgN/A
12:20 am50 °FPassing clouds.9 mph100%29.92 "Hg4 mi
11:50 pm
Fri, Dec 9
50 °FLight rain. Passing clouds.8 mph100%29.92 "Hg5 mi
11:20 pm50 °FLight rain. Passing clouds.9 mph100%29.92 "Hg5 mi
10:50 pm50 °FLight rain. Passing clouds.9 mph94%29.95 "Hg5 mi
10:20 pm50 °FLight rain. Passing clouds.8 mph94%29.95 "Hg5 mi
9:50 pm50 °FLight rain. Low clouds.7 mph94%29.95 "Hg4 mi
9:20 pm48 °FLight rain. Low clouds.7 mph100%29.98 "Hg3 mi
8:50 pm48 °FLight rain. Mostly cloudy.9 mph100%29.98 "Hg4 mi
8:20 pm48 °FLow clouds.10 mph94%30.01 "HgN/A
7:50 pm48 °FPartly cloudy.12 mph87%30.01 "HgN/A
7:20 pm48 °FOvercast.15 mph87%30.01 "HgN/A
6:50 pm48 °FMostly cloudy.15 mph87%30.01 "HgN/A
6:20 pm48 °FPartly cloudy.14 mph87%30.01 "HgN/A
5:50 pm48 °FPassing clouds.14 mph87%30.01 "HgN/A
5:20 pm48 °FPassing clouds.14 mph82%30.04 "HgN/A
4:50 pm48 °FPassing clouds.15 mph82%30.04 "HgN/A
4:20 pm48 °FPassing clouds.13 mph82%30.07 "HgN/A
3:50 pm48 °FPartly cloudy.13 mph82%30.07 "HgN/A
3:20 pm48 °FPartly sunny.14 mph82%30.07 "HgN/A
2:50 pm48 °FPartly sunny.10 mph82%30.07 "HgN/A
2:20 pm48 °FPassing clouds.13 mph82%30.07 "HgN/A
1:50 pm48 °FCool.9 mph82%30.07 "HgN/A
1:20 pm48 °FPassing clouds.13 mph87%30.07 "HgN/A
12:50 pm48 °FPassing clouds.14 mph87%30.07 "HgN/A
12:20 pm48 °FPassing clouds.15 mph87%30.07 "HgN/A
11:50 am48 °FScattered clouds.14 mph87%30.07 "HgN/A
11:20 am48 °FPartly sunny.13 mph87%30.07 "HgN/A
10:50 am46 °FPartly sunny.13 mph93%30.07 "HgN/A
10:20 am46 °FPartly sunny.15 mph93%30.04 "HgN/A
9:50 am46 °FPartly sunny.14 mph93%30.04 "HgN/A
9:20 am46 °FPartly sunny.15 mph93%30.04 "HgN/A
Weather by CustomWeather, © 2016

See weather overviewHow to use our weather pages